Weather Roundup
Issued by NWS Springfield, MO

Home | Current Version | Previous Version | Text Only | Print | Product List | Glossary On
Versions: 1 2 3 4 5 6 7 8 9 10 11 12 13 14 15 16 17 18 19 20 21 22 23 24 25 26 27 28 29 30 31 32 33 34 35 36 37 38 39 40 41 42 43 44 45 46 47 48 49 50
000
NZUS99 KSGF 011510
HRRSGF

HOURLY WEATHER
NATIONAL WEATHER SERVICE SPRINGFIELD MO
1000 AM CDT TUE SEP 01 2015

......SGF CWA......

CITY           SKY/WX    TMP DP  RH WIND       PRES   REMARKS
SPRINGFIELD    SUNNY     80  69  69 S9        30.10S
JOPLIN         SUNNY     80  67  64 S12       30.08S
WEST PLAINS    SUNNY     79  70  74 VRB3      30.15S
ROLLA          SUNNY     81  70  69 SW12      30.10S
OSAGE BEACH    SUNNY     81  70  69 SW3       30.10S
BRANSON        SUNNY     79  68  69 CALM      30.13R

......SURROUNDING SGF CWA......

CITY           SKY/WX    TMP DP  RH WIND       PRES   REMARKS
CHANUTE        SUNNY     79  68  69 S12       30.05S
PARSONS        SUNNY     79  70  74 S8        30.06S
COFFEYVILLE    SUNNY     78  69  73 S12       30.05S
EMPORIA        SUNNY     77  66  68 S10       30.02S
GROVE OK       SUNNY     81  68  65 S9        30.08S
ROGERS AR      SUNNY     81  67  62 SW7       30.12S
SILOAM SPRINGS SUNNY     81  64  57 S8        30.09S
NEAR YELLVILLE SUNNY     77  66  69 CALM      30.09S

......KANSAS AND MISSOURI......

CITY           SKY/WX    TMP DP  RH WIND       PRES   REMARKS
KANSAS CTY INT MOSUNNY   80  69  69 S12       30.03S
DOWNTOWN KC    SUNNY     82  68  62 SW12      30.02F
COLUMBIA       SUNNY     80  69  69 SW9       30.09R
SEDALIA        SUNNY     82  68  62 SW12      30.08S
ST JOSEPH      PTSUNNY   79  70  74 S9        30.01S
ST LOUIS       MOSUNNY   84  70  62 SW6       30.10S
SPIRIT OF STL  SUNNY     82  71  69 SW8       30.08S
KIRKSVILLE     SUNNY     78  68  71 SW10      30.07S
WICHITA        MOSUNNY   80  65  59 S16       30.01S
TOPEKA         SUNNY     80  67  64 S8        30.01S
OLATHE         SUNNY     77  68  73 S8        30.04S

......TENNESSEE......

CITY           SKY/WX    TMP DP  RH WIND       PRES   REMARKS
MEMPHIS        PTSUNNY   83  69  62 SE8       30.11S
NASHVILLE      PTSUNNY   83  67  58 VRB3      30.17R

......ARKANSAS.......

CITY           SKY/WX    TMP DP  RH WIND       PRES   REMARKS
FAYETTEVILLE   SUNNY     78  70  76 CALM      30.11S
FT SMITH       SUNNY     79  68  69 E3        30.08R
LITTLE ROCK    PTSUNNY   84  70  62 CALM      30.08S

......OKLAHOMA.......

CITY           SKY/WX    TMP DP  RH WIND       PRES   REMARKS
TULSA          SUNNY     80  69  69 S12       30.03S
PONCA CITY     SUNNY     80  66  62 S8        30.02S
MCALESTER      SUNNY     81  71  71 VRB6      30.06S
OKLAHOMA CITY  SUNNY     79  68  69 S14       30.04S

......IOWA............

CITY           SKY/WX    TMP DP  RH WIND       PRES   REMARKS
DES MOINES     MOSUNNY   79  69  71 SW13      29.98R
QUAD CITIES    SUNNY     82  71  69 SW9       30.02F

......ILLINOIS........

CITY           SKY/WX    TMP DP  RH WIND       PRES   REMARKS
QUINCY         SUNNY     81  69  67 SW9       30.06F
CHICAGO        MOSUNNY   79  72  79 VRB3      30.05S




USA.gov is the U.S. government's official web portal to all federal, state and local government web resources and services.